Miscellaneous Local Product
Issued by NWS North Platte, NE

Home | Current Version | Previous Version | Text Only | Print | Product List | Glossary On
Versions: 1 2 3 4 5 6 7 8 9 10 11 12 13 14 15 16 17 18 19 20 21 22 23 24 25 26 27 28 29 30 31 32 33 34 35 36 37 38 39 40 41 42 43 44 45 46 47 48 49 50
000
AXUS43 KLBF 211510
MISLBF


WESTERN AND NORTH CENTRAL NEBRASKA HOURLY WEATHER ROUNDUP
NATIONAL WEATHER SERVICE NORTH PLATTE NE
900 AM CST WED FEB 21 2018

NOTE: "FAIR" INDICATES FEW OR NO CLOUDS BELOW 12,000 FEET WITH NO
SIGNIFICANT WEATHER AND/OR OBSTRUCTIONS TO VISIBILITY.

NOTE: STATIONS NOT REPORTING VARIABLES SUCH AS SKY/WEATHER OR
PRESSURE ARE PROVIDED BY RAWS AND APRS NETWORKS AND ARE NOT UNDER
NATIONAL WEATHER SERVICE QUALITY CONTROL.

...OBSERVATIONS IN AND NEAR THE EASTERN PANHANDLE OF NEBRASKA...

CITY           SKY/WX    TMP DP  RH WIND       PRES   REMARKS
PINE RIDGE     SUNNY    -11 -13  91 CALM      30.31R
GORDON         FAIR      -4 -11  72 W8        30.30R WCI -19
CHADRON        MOSUNNY  -10 -19  64 CALM      30.31S
ALLIANCE       SUNNY    -15 -16  95 CALM      30.28R
SIDNEY         SUNNY     11   5  77 SW10      30.28R WCI  -3
$$

...OBSERVATIONS IN NORTHERN NEBRASKA AND FAR SOUTHERN SOUTH DAKOTA...

CITY           SKY/WX    TMP DP  RH WIND       PRES   REMARKS
WINNER         FAIR      -2 -11  65 S7        30.46R WCI -15
VALENTINE      SUNNY     -9 -15  75 SW3       30.42R
AINSWORTH      SUNNY      2  -4  75 W6        30.42S WCI  -9
O`NEILL        SUNNY     -2  -9  72 SW6       30.50R WCI -14
THEDFORD       SUNNY      2  -3  77 CALM      30.41R
BROKEN BOW     SUNNY      2  -5  72 CALM      30.47R
ORD            SUNNY      2  -3  80 CALM      30.52
ALBION         MOSUNNY    5  -3  68 CALM      30.58R
$$

...OBSERVATIONS IN SOUTHWEST NEBRASKA AND FAR NORTHEAST COLORADO...

CITY           SKY/WX    TMP DP  RH WIND       PRES   REMARKS
WRAY           FAIR      12   5  73 CALM      30.37R
HOLYOKE        FAIR       9   1  72 W6        30.35R WCI  -1
IMPERIAL       SUNNY      4  -2  76 W3        30.40R
OGALLALA       SUNNY      1  -4  79 W5        30.40R WCI  -9
NORTH PLATTE   SUNNY      2  -2  83 CALM      30.46R
MCCOOK         SUNNY      7   1  76 W5        30.50R WCI  -2
LEXINGTON      SUNNY     10   3  74 CALM      30.52R
GOTHENBURG       N/A      6  -1  73 CALM        N/A
CALLAWAY         N/A      3  -2  81 SE5         N/A  WCI  -6
$$

...OBSERVATIONS IN CENTRAL LINCOLN COUNTY AREA...

CITY           SKY/WX    TMP DP  RH WIND       PRES   REMARKS
N.P. AIRPORT   SUNNY      2  -2  83 CALM      30.46R
$$

...OBSERVATIONS ACROSS THE ROCKIES AND WESTERN HIGH PLAINS...

CITY           SKY/WX    TMP DP  RH WIND       PRES   REMARKS
RAPID CITY     FLURRIES -15 -18  86 SE3       30.28R
SCOTTSBLUFF    SUNNY     -5 -10  79 N3        30.29R
CHEYENNE       SUNNY      6   3  87 S3        30.13R
DENVER         MOSUNNY    6   2  83 VRB3      30.20R
BERTHOUD PASS  FAIR      -6 -17  59 W18G33    29.86R WCI -29
COPPER MTN     SUNNY      5 -18  33 S17G23    29.89R WCI -14
MONARCH PASS   SUNNY     -2  -8  78 SW20      30.02R WCI -25
ASPEN          SUNNY      0  -5  79 CALM      30.05S
LARAMIE        SUNNY     -8 -12  83 W9        30.05R WCI -25
CASPER         SUNNY     -5 -12  72 NW6       30.12R WCI -18
$$

...OBSERVATIONS ACROSS THE NORTHERN PLAINS...

CITY           SKY/WX    TMP DP  RH WIND       PRES   REMARKS
BISMARCK       SUNNY     -6 -13  71 SE3       30.40R
FARGO          FAIR      -2 -10  69 SW10      30.48R WCI -19
PIERRE         SUNNY    -11 -13  91 CALM      30.45R
SIOUX FALLS    CLOUDY     0  -6  76 SW3       30.55R
$$

...OBSERVATIONS ACROSS THE CENTRAL AND SOUTHERN PLAINS...

CITY           SKY/WX    TMP DP  RH WIND       PRES   REMARKS
OMAHA          CLOUDY    11   3  70 N3        30.65R
GRAND ISLAND   SUNNY      9   0  67 S5        30.58R WCI   1
KANSAS CITY    CLOUDY    16  11  80 N12       30.58R WCI   3
WICHITA        CLOUDY    17  10  74 N16       30.51S WCI   2
DODGE CITY     CLOUDY    13   0  56 NE16      30.45S WCI  -3
OKLAHOMA CITY  CLOUDY    21  17  84 N17G25    30.39S WCI   7
DALLAS         CLOUDY    36  33  89 N17G29    30.25F WCI  26
AMARILLO       CLOUDY    18   1  47 N17       30.34R WCI   3
$$




USA.gov is the U.S. government's official web portal to all federal, state and local government web resources and services.